When you browse on this site, cookies collect data to enhance your experience and personalize the content and advertising you see.
Visit our Privacy Policy to learn more. By continuing to use the site, you agree to this use of cookies and data.
  • In Hungary
  • List of Countries
  • For 7 days
  • Water Temperature
  • Weather Map
  • News
  • Weather Widgets
  • user-avatar
    Login

    Hourly Weather Neborivka

    Today, 30 March, Monday

    Time Temperature Precipitation Wind Pressure Humidity
    00:00 +8°C° 0 mm 3 mps 732 mmHg 68%
    01:00 +7°C° 0 mm 3 mps 733 mmHg 73%
    02:00 +7°C° 0 mm 3 mps 733 mmHg 78%
    03:00 +6°C° 0 mm 4 mps 733 mmHg 81%
    04:00 +6°C° 0 mm 4 mps 733 mmHg 84%
    05:00 +5°C° 0 mm 5 mps 733 mmHg 88%
    06:00 +5°C° 0 mm 5 mps 734 mmHg 86%
    07:00 +5°C° 0 mm 5 mps 734 mmHg 84%
    08:00 +3°C° 0 mm 5 mps 735 mmHg 83%
    09:00 +3°C° 0.2 mm 5 mps 735 mmHg 84%
    10:00 +2°C° 0.2 mm 5 mps 736 mmHg 85%
    11:00 +1°C° 0.2 mm 5 mps 736 mmHg 86%
    12:00 +1°C° 0 mm 5 mps 737 mmHg 82%
    13:00 +1°C° 0 mm 6 mps 737 mmHg 78%
    14:00 +1°C° 0 mm 6 mps 737 mmHg 74%
    15:00 +1°C° 0.1 mm 6 mps 737 mmHg 75%
    16:00 -1°C° 0.1 mm 6 mps 737 mmHg 75%
    17:00 0°C° 0.1 mm 5 mps 738 mmHg 76%
    18:00 0°C° 0 mm 5 mps 738 mmHg 73%
    19:00 -1°C° 0 mm 5 mps 739 mmHg 70%
    20:00 -1°C° 0 mm 4 mps 739 mmHg 67%
    21:00 -2°C° 0 mm 4 mps 739 mmHg 68%
    22:00 -3°C° 0 mm 4 mps 740 mmHg 70%
    23:00 -2°C° 0 mm 3 mps 740 mmHg 72%

    Tomorrow, 31 March, Tuesday

    Time Temperature Precipitation Wind Pressure Humidity
    00:00 -4°C° 0 mm 3 mps 740 mmHg 72%
    01:00 -4°C° 0 mm 4 mps 740 mmHg 72%
    02:00 -4°C° 0 mm 4 mps 740 mmHg 72%
    03:00 -4°C° 0 mm 4 mps 741 mmHg 72%
    04:00 -4°C° 0 mm 4 mps 741 mmHg 71%
    05:00 -5°C° 0 mm 4 mps 741 mmHg 71%
    06:00 -4°C° 0 mm 4 mps 742 mmHg 69%
    07:00 -5°C° 0 mm 5 mps 742 mmHg 66%
    08:00 -4°C° 0 mm 5 mps 742 mmHg 64%
    09:00 -2°C° 0 mm 5 mps 743 mmHg 55%
    10:00 -1°C° 0 mm 5 mps 743 mmHg 46%
    11:00 0°C° 0 mm 5 mps 743 mmHg 38%
    12:00 +1°C° 0 mm 5 mps 743 mmHg 35%
    13:00 +1°C° 0 mm 5 mps 743 mmHg 33%
    14:00 +3°C° 0 mm 4 mps 743 mmHg 31%
    15:00 +3°C° 0 mm 4 mps 743 mmHg 31%
    16:00 +3°C° 0 mm 4 mps 743 mmHg 32%
    17:00 +3°C° 0 mm 4 mps 743 mmHg 33%
    18:00 +1°C° 0 mm 3 mps 744 mmHg 38%
    19:00 +1°C° 0 mm 2 mps 744 mmHg 43%
    20:00 -2°C° 0 mm 2 mps 744 mmHg 48%
    21:00 0°C° 0 mm 1 mps 744 mmHg 48%
    22:00 0°C° 0 mm 1 mps 745 mmHg 48%
    23:00 0°C° 0 mm 1 mps 745 mmHg 49%

    Day after tomorrow, 1 April, Wednesday

    Time Temperature Precipitation Wind Pressure Humidity
    00:00 0°C° 0 mm 1 mps 745 mmHg 48%
    01:00 0°C° 0 mm 1 mps 745 mmHg 48%
    02:00 -2°C° 0 mm 2 mps 744 mmHg 47%
    03:00 -3°C° 0 mm 2 mps 744 mmHg 48%
    04:00 -3°C° 0 mm 2 mps 744 mmHg 48%
    05:00 -4°C° 0 mm 3 mps 744 mmHg 48%
    06:00 -3°C° 0 mm 4 mps 744 mmHg 44%
    07:00 -1°C° 0 mm 4 mps 744 mmHg 40%
    08:00 0°C° 0 mm 5 mps 744 mmHg 36%
    09:00 +1°C° 0 mm 6 mps 743 mmHg 34%
    10:00 +2°C° 0 mm 6 mps 743 mmHg 33%
    11:00 +3°C° 0 mm 6 mps 743 mmHg 31%
    12:00 +4°C° 0 mm 7 mps 742 mmHg 33%
    13:00 +4°C° 0 mm 7 mps 742 mmHg 34%
    14:00 +5°C° 0 mm 7 mps 742 mmHg 36%
    15:00 +4°C° 0 mm 7 mps 741 mmHg 38%
    16:00 +4°C° 0 mm 7 mps 741 mmHg 41%
    17:00 +4°C° 0 mm 6 mps 740 mmHg 43%
    18:00 +2°C° 0 mm 5 mps 740 mmHg 48%
    19:00 +1°C° 0 mm 4 mps 740 mmHg 54%
    20:00 +1°C° 0 mm 3 mps 740 mmHg 59%
    21:00 -1°C° 0 mm 4 mps 740 mmHg 61%
    22:00 -1°C° 0 mm 4 mps 740 mmHg 63%
    23:00 -2°C° 0 mm 4 mps 739 mmHg 65%

    2 April, Thursday

    Time Temperature Precipitation Wind Pressure Humidity
    00:00 -2°C° 0 mm 4 mps 739 mmHg 63%
    01:00 -2°C° 0 mm 4 mps 739 mmHg 62%
    02:00 -2°C° 0 mm 5 mps 739 mmHg 61%
    03:00 -2°C° 0 mm 5 mps 738 mmHg 61%
    04:00 -2°C° 0 mm 5 mps 738 mmHg 61%
    05:00 -2°C° 0 mm 4 mps 738 mmHg 61%
    06:00 -1°C° 0 mm 5 mps 738 mmHg 58%
    07:00 0°C° 0 mm 5 mps 738 mmHg 55%
    08:00 +1°C° 0 mm 6 mps 738 mmHg 52%
    09:00 +2°C° 0 mm 6 mps 737 mmHg 50%
    10:00 +3°C° 0 mm 7 mps 737 mmHg 47%
    11:00 +5°C° 0 mm 7 mps 737 mmHg 45%
    12:00 +5°C° 0 mm 7 mps 737 mmHg 45%
    13:00 +6°C° 0 mm 7 mps 737 mmHg 44%
    14:00 +6°C° 0 mm 7 mps 737 mmHg 44%
    15:00 +6°C° 0 mm 7 mps 736 mmHg 46%
    16:00 +5°C° 0 mm 6 mps 736 mmHg 47%
    17:00 +5°C° 0 mm 6 mps 736 mmHg 49%
    18:00 +5°C° 0 mm 5 mps 736 mmHg 55%
    19:00 +4°C° 0 mm 4 mps 736 mmHg 60%
    20:00 +2°C° 0 mm 3 mps 736 mmHg 65%
    21:00 +2°C° 0 mm 3 mps 736 mmHg 68%
    22:00 +2°C° 0 mm 3 mps 737 mmHg 71%
    23:00 +1°C° 0 mm 3 mps 737 mmHg 74%

    3 April, Friday

    Time Temperature Precipitation Wind Pressure Humidity
    00:00 +1°C° 0 mm 3 mps 736 mmHg 76%
    01:00 +1°C° 0 mm 3 mps 736 mmHg 78%
    02:00 0°C° 0 mm 3 mps 736 mmHg 80%
    03:00 0°C° 0 mm 3 mps 736 mmHg 80%
    04:00 0°C° 0 mm 3 mps 736 mmHg 81%
    05:00 -1°C° 0 mm 3 mps 736 mmHg 81%
    06:00 0°C° 0 mm 4 mps 736 mmHg 74%
    07:00 +1°C° 0 mm 4 mps 736 mmHg 66%
    08:00 +2°C° 0 mm 5 mps 736 mmHg 59%
    09:00 +4°C° 0 mm 6 mps 736 mmHg 53%
    10:00 +6°C° 0 mm 7 mps 736 mmHg 47%
    11:00 +8°C° 0 mm 7 mps 735 mmHg 42%
    12:00 +9°C° 0 mm 7 mps 735 mmHg 40%
    13:00 +9°C° 0 mm 7 mps 735 mmHg 39%
    14:00 +10°C° 0 mm 7 mps 734 mmHg 38%
    15:00 +10°C° 0 mm 7 mps 734 mmHg 40%
    16:00 +10°C° 0 mm 6 mps 734 mmHg 42%
    17:00 +9°C° 0 mm 6 mps 734 mmHg 44%
    18:00 +8°C° 0 mm 5 mps 734 mmHg 49%
    19:00 +7°C° 0 mm 5 mps 734 mmHg 55%
    20:00 +6°C° 0 mm 4 mps 734 mmHg 60%
    21:00 +5°C° 0.1 mm 5 mps 735 mmHg 68%
    22:00 +4°C° 0.1 mm 6 mps 735 mmHg 75%
    23:00 +3°C° 0.1 mm 7 mps 736 mmHg 83%

    4 April, Saturday

    Time Temperature Precipitation Wind Pressure Humidity
    00:00 +2°C° 0.1 mm 6 mps 736 mmHg 80%
    01:00 +2°C° 0.1 mm 5 mps 737 mmHg 78%
    02:00 +1°C° 0.1 mm 4 mps 737 mmHg 75%
    03:00 +1°C° 0 mm 4 mps 738 mmHg 75%
    04:00 0°C° 0 mm 4 mps 738 mmHg 75%
    05:00 -1°C° 0 mm 4 mps 739 mmHg 75%
    06:00 0°C° 0 mm 5 mps 740 mmHg 68%
    07:00 -1°C° 0 mm 6 mps 740 mmHg 62%
    08:00 0°C° 0 mm 7 mps 741 mmHg 56%
    09:00 +2°C° 0 mm 7 mps 741 mmHg 52%
    10:00 +3°C° 0 mm 7 mps 742 mmHg 48%
    11:00 +4°C° 0 mm 7 mps 742 mmHg 43%
    12:00 +4°C° 0.1 mm 7 mps 742 mmHg 43%
    13:00 +4°C° 0.1 mm 7 mps 743 mmHg 42%
    14:00 +5°C° 0.1 mm 7 mps 743 mmHg 42%
    15:00 +4°C° 0 mm 7 mps 743 mmHg 43%
    16:00 +4°C° 0 mm 7 mps 744 mmHg 44%
    17:00 +4°C° 0 mm 7 mps 744 mmHg 44%
    18:00 +3°C° 0 mm 6 mps 745 mmHg 50%
    19:00 +3°C° 0 mm 4 mps 745 mmHg 56%
    20:00 +2°C° 0 mm 3 mps 746 mmHg 61%
    21:00 +1°C° 0 mm 3 mps 747 mmHg 63%
    22:00 +1°C° 0 mm 3 mps 748 mmHg 64%
    23:00 0°C° 0 mm 3 mps 748 mmHg 65%
    Show more